Wetterdaten: Freitag, 10.05.2013
Datum Zeit Temperatur Luftfeuchte Luftdruck Regen Wind Richtung Richtung Taupunkt Windchill Windben
10.05.2013 00:00 12,3 C 91 % 1017,4 hPa 0,0 l/m 1,0 km/h (0 Bft) O-NO 67 10,9 C 12,6 C 0,0 km/h (0 Bft)
10.05.2013 00:05 12,3 C 91 % 1017,4 hPa 0,0 l/m 1,0 km/h (0 Bft) NO 45 10,9 C 12,5 C 2,1 km/h (1 Bft)
10.05.2013 00:10 12,3 C 91 % 1017,4 hPa 0,0 l/m 1,0 km/h (0 Bft) O-NO 67 10,9 C 12,5 C 2,6 km/h (1 Bft)
10.05.2013 00:15 12,3 C 91 % 1017,4 hPa 0,0 l/m 1,1 km/h (1 Bft) O-NO 67 10,9 C 12,4 C 0,0 km/h (0 Bft)
10.05.2013 00:20 12,2 C 91 % 1017,4 hPa 0,0 l/m 0,8 km/h (0 Bft) O 90 10,8 C 12,4 C 0,0 km/h (0 Bft)
10.05.2013 00:25 12,2 C 91 % 1017,2 hPa 0,0 l/m 0,6 km/h (0 Bft) N-NO 22 10,8 C 12,4 C 1,9 km/h (1 Bft)
10.05.2013 00:30 12,3 C 91 % 1017,2 hPa 0,0 l/m 0,3 km/h (0 Bft) S-SO 157 10,9 C 12,4 C 1,6 km/h (1 Bft)
10.05.2013 00:35 12,3 C 92 % 1017,2 hPa 0,0 l/m 0,3 km/h (0 Bft) S-SO 157 11,0 C 12,4 C 0,0 km/h (0 Bft)
10.05.2013 00:40 12,3 C 92 % 1017,2 hPa 0,0 l/m 0,2 km/h (0 Bft) SO 135 11,0 C 12,4 C 0,0 km/h (0 Bft)
10.05.2013 00:45 12,3 C 92 % 1017,0 hPa 0,0 l/m 0,0 km/h (0 Bft) O-NO 67 11,0 C 12,4 C 0,0 km/h (0 Bft)
10.05.2013 00:50 12,3 C 92 % 1017,0 hPa 0,0 l/m 0,2 km/h (0 Bft) O-SO 112 11,0 C 12,4 C 1,9 km/h (1 Bft)
10.05.2013 00:55 12,3 C 92 % 1017,0 hPa 0,0 l/m 0,3 km/h (0 Bft) O-SO 112 11,0 C 12,4 C 1,6 km/h (1 Bft)
10.05.2013 01:00 12,3 C 92 % 1017,0 hPa 0,0 l/m 1,0 km/h (0 Bft) O-SO 112 11,0 C 12,4 C 1,8 km/h (1 Bft)
10.05.2013 01:05 12,3 C 93 % 1016,9 hPa 0,0 l/m 0,8 km/h (0 Bft) O-NO 67 11,2 C 12,4 C 0,0 km/h (0 Bft)
10.05.2013 01:10 12,3 C 92 % 1016,9 hPa 0,0 l/m 0,8 km/h (0 Bft) O-NO 67 11,0 C 12,4 C 2,7 km/h (1 Bft)
10.05.2013 01:15 12,2 C 92 % 1016,9 hPa 0,0 l/m 0,6 km/h (0 Bft) O-NO 67 10,9 C 12,4 C 0,0 km/h (0 Bft)
10.05.2013 01:20 12,2 C 92 % 1016,9 hPa 0,0 l/m 0,5 km/h (0 Bft) O-NO 67 10,9 C 12,4 C 1,9 km/h (1 Bft)
10.05.2013 01:25 12,2 C 92 % 1016,7 hPa 0,0 l/m 0,2 km/h (0 Bft) NO 45 10,9 C 12,4 C 1,8 km/h (1 Bft)
10.05.2013 01:30 12,1 C 92 % 1016,7 hPa 0,0 l/m 0,3 km/h (0 Bft) O-SO 112 10,8 C 12,3 C 0,0 km/h (0 Bft)
10.05.2013 01:35 12,1 C 93 % 1016,7 hPa 0,0 l/m 0,2 km/h (0 Bft) S 180 11,0 C 12,3 C 0,0 km/h (0 Bft)
10.05.2013 01:40 12,2 C 93 % 1016,7 hPa 0,0 l/m 0,5 km/h (0 Bft) O-SO 112 11,1 C 12,2 C 4,0 km/h (1 Bft)
10.05.2013 01:45 12,2 C 93 % 1016,6 hPa 0,0 l/m 1,6 km/h (1 Bft) S-SO 157 11,1 C 12,4 C 4,2 km/h (1 Bft)
10.05.2013 01:50 12,2 C 92 % 1016,6 hPa 0,0 l/m 2,1 km/h (1 Bft) O-SO 112 10,9 C 12,4 C 4,7 km/h (1 Bft)
10.05.2013 01:55 12,2 C 92 % 1016,6 hPa 0,0 l/m 1,4 km/h (1 Bft) SO 135 10,9 C 12,5 C 3,9 km/h (1 Bft)
10.05.2013 02:00 12,2 C 92 % 1016,6 hPa 0,0 l/m 1,4 km/h (1 Bft) NO 45 10,9 C 12,5 C 7,4 km/h (2 Bft)
10.05.2013 02:05 12,2 C 92 % 1016,2 hPa 0,0 l/m 2,1 km/h (1 Bft) SO 135 10,9 C 12,5 C 3,4 km/h (1 Bft)
10.05.2013 02:10 12,1 C 92 % 1016,2 hPa 0,0 l/m 1,8 km/h (1 Bft) O-SO 112 10,8 C 12,4 C 2,1 km/h (1 Bft)
10.05.2013 02:15 12,1 C 92 % 1016,2 hPa 0,0 l/m 1,6 km/h (1 Bft) SO 135 10,8 C 12,3 C 3,1 km/h (1 Bft)
10.05.2013 02:20 12,1 C 92 % 1016,2 hPa 0,0 l/m 2,1 km/h (1 Bft) S 180 10,8 C 12,1 C 8,5 km/h (2 Bft)
10.05.2013 02:25 12,0 C 92 % 1016,0 hPa 0,0 l/m 2,4 km/h (1 Bft) S 180 10,7 C 12,1 C 2,3 km/h (1 Bft)
10.05.2013 02:30 12,0 C 92 % 1016,0 hPa 0,0 l/m 1,3 km/h (1 Bft) O 90 10,7 C 12,0 C 0,0 km/h (0 Bft)
10.05.2013 02:35 12,0 C 92 % 1016,0 hPa 0,0 l/m 0,8 km/h (0 Bft) NO 45 10,7 C 12,0 C 3,1 km/h (1 Bft)
10.05.2013 02:40 12,0 C 92 % 1016,0 hPa 0,0 l/m 1,0 km/h (0 Bft) SO 135 10,7 C 12,0 C 2,3 km/h (1 Bft)
10.05.2013 02:45 12,0 C 92 % 1015,9 hPa 0,0 l/m 1,4 km/h (1 Bft) O-SO 112 10,7 C 12,0 C 2,1 km/h (1 Bft)
10.05.2013 02:50 11,9 C 93 % 1015,9 hPa 0,0 l/m 0,8 km/h (0 Bft) O 90 10,8 C 12,1 C 1,6 km/h (1 Bft)
10.05.2013 02:55 11,9 C 93 % 1015,9 hPa 0,0 l/m 0,2 km/h (0 Bft) SO 135 10,8 C 12,0 C 0,0 km/h (0 Bft)
10.05.2013 03:00 11,9 C 93 % 1015,9 hPa 0,0 l/m 0,5 km/h (0 Bft) O 90 10,8 C 12,0 C 0,0 km/h (0 Bft)
10.05.2013 03:05 11,9 C 93 % 1015,9 hPa 0,0 l/m 0,5 km/h (0 Bft) O-SO 112 10,8 C 12,0 C 2,3 km/h (1 Bft)
10.05.2013 03:10 11,9 C 93 % 1015,9 hPa 0,0 l/m 1,4 km/h (1 Bft) O-NO 67 10,8 C 12,0 C 2,3 km/h (1 Bft)
10.05.2013 03:15 11,9 C 93 % 1015,9 hPa 0,0 l/m 1,6 km/h (1 Bft) SO 135 10,8 C 12,0 C 1,9 km/h (1 Bft)
10.05.2013 03:20 11,9 C 93 % 1015,9 hPa 0,0 l/m 1,4 km/h (1 Bft) O-NO 67 10,8 C 12,0 C 0,0 km/h (0 Bft)
10.05.2013 03:25 11,9 C 93 % 1015,5 hPa 0,0 l/m 1,3 km/h (1 Bft) SO 135 10,8 C 11,9 C 0,0 km/h (0 Bft)
10.05.2013 03:30 11,9 C 93 % 1015,5 hPa 0,0 l/m 1,3 km/h (1 Bft) NO 45 10,8 C 11,9 C 2,3 km/h (1 Bft)
10.05.2013 03:35 11,9 C 93 % 1015,5 hPa 0,0 l/m 1,3 km/h (1 Bft) O-NO 67 10,8 C 11,9 C 3,2 km/h (1 Bft)
10.05.2013 03:40 11,8 C 92 % 1015,5 hPa 0,0 l/m 1,1 km/h (1 Bft) O 90 10,5 C 11,8 C 0,0 km/h (0 Bft)
10.05.2013 03:45 11,8 C 92 % 1015,6 hPa 0,0 l/m 1,3 km/h (1 Bft) NO 45 10,5 C 11,8 C 1,9 km/h (1 Bft)
10.05.2013 03:50 11,8 C 92 % 1015,6 hPa 0,0 l/m 1,4 km/h (1 Bft) NO 45 10,5 C 11,7 C 3,1 km/h (1 Bft)
10.05.2013 03:55 11,8 C 92 % 1015,6 hPa 0,0 l/m 1,6 km/h (1 Bft) NO 45 10,5 C 11,8 C 3,1 km/h (1 Bft)
10.05.2013 04:00 11,8 C 92 % 1015,6 hPa 0,0 l/m 1,3 km/h (1 Bft) W 270 10,5 C 11,8 C 0,0 km/h (0 Bft)
10.05.2013 04:05 11,7 C 92 % 1015,4 hPa 0,0 l/m 0,8 km/h (0 Bft) W-NW 292 10,4 C 11,8 C 0,0 km/h (0 Bft)
10.05.2013 04:10 11,8 C 92 % 1015,4 hPa 0,0 l/m 0,6 km/h (0 Bft) SO 135 10,5 C 11,8 C 0,0 km/h (0 Bft)
10.05.2013 04:15 11,7 C 92 % 1015,4 hPa 0,0 l/m 0,5 km/h (0 Bft) SO 135 10,4 C 11,7 C 0,0 km/h (0 Bft)
10.05.2013 04:20 11,7 C 93 % 1015,4 hPa 0,0 l/m 0,0 km/h (0 Bft) SO 135 10,6 C 11,7 C 0,0 km/h (0 Bft)
10.05.2013 04:25 11,7 C 93 % 1015,2 hPa 0,0 l/m 0,0 km/h (0 Bft) SO 135 10,6 C 11,7 C 0,0 km/h (0 Bft)
10.05.2013 04:30 11,6 C 93 % 1015,2 hPa 0,0 l/m 0,0 km/h (0 Bft) NO 45 10,5 C 11,6 C 1,6 km/h (1 Bft)
10.05.2013 04:35 11,6 C 93 % 1015,2 hPa 0,0 l/m 0,0 km/h (0 Bft) S 180 10,5 C 11,5 C 1,6 km/h (1 Bft)
10.05.2013 04:40 11,6 C 93 % 1015,2 hPa 0,0 l/m 0,2 km/h (0 Bft) S-SO 157 10,5 C 11,5 C 1,8 km/h (1 Bft)
10.05.2013 04:45 11,6 C 93 % 1015,1 hPa 0,0 l/m 0,2 km/h (0 Bft) S-SO 157 10,5 C 11,5 C 0,0 km/h (0 Bft)
10.05.2013 04:50 11,6 C 93 % 1015,1 hPa 0,0 l/m 0,5 km/h (0 Bft) O-SO 112 10,5 C 11,5 C 0,0 km/h (0 Bft)
10.05.2013 04:55 11,6 C 93 % 1015,1 hPa 0,0 l/m 0,3 km/h (0 Bft) S-SO 157 10,5 C 11,5 C 0,0 km/h (0 Bft)
10.05.2013 05:00 11,6 C 93 % 1015,1 hPa 0,0 l/m 0,3 km/h (0 Bft) S 180 10,5 C 11,5 C 0,0 km/h (0 Bft)
10.05.2013 05:05 11,6 C 93 % 1015,3 hPa 0,0 l/m 0,3 km/h (0 Bft) O-SO 112 10,5 C 11,5 C 0,0 km/h (0 Bft)
10.05.2013 05:10 11,5 C 93 % 1015,3 hPa 0,0 l/m 1,0 km/h (0 Bft) W-SW 247 10,4 C 11,4 C 0,0 km/h (0 Bft)
10.05.2013 05:15 11,4 C 93 % 1015,3 hPa 0,0 l/m 1,8 km/h (1 Bft) SO 135 10,3 C 11,1 C 1,9 km/h (1 Bft)
10.05.2013 05:20 11,2 C 93 % 1015,3 hPa 0,0 l/m 3,1 km/h (1 Bft) S 180 10,1 C 11,0 C 3,9 km/h (1 Bft)
10.05.2013 05:25 11,1 C 93 % 1015,3 hPa 0,0 l/m 3,4 km/h (1 Bft) S 180 10,0 C 10,8 C 5,5 km/h (1 Bft)
10.05.2013 05:30 10,9 C 93 % 1015,3 hPa 0,0 l/m 5,1 km/h (1 Bft) SO 135 9,8 C 10,5 C 13,5 km/h (3 Bft)
10.05.2013 05:35 10,7 C 93 % 1015,3 hPa 0,0 l/m 6,6 km/h (2 Bft) SW 225 9,6 C 9,6 C 7,2 km/h (2 Bft)
10.05.2013 05:40 10,4 C 92 % 1015,3 hPa 0,0 l/m 5,6 km/h (1 Bft) S 180 9,2 C 9,8 C 4,2 km/h (1 Bft)
10.05.2013 05:45 10,2 C 93 % 1015,8 hPa 0,7 l/m 4,7 km/h (1 Bft) S-SW 202 9,1 C 9,8 C 4,8 km/h (1 Bft)
10.05.2013 05:50 10,1 C 93 % 1015,8 hPa 0,0 l/m 4,7 km/h (1 Bft) S 180 9,0 C 9,7 C 3,1 km/h (1 Bft)
10.05.2013 05:55 10,0 C 93 % 1015,8 hPa 0,7 l/m 4,5 km/h (1 Bft) S-SO 157 8,9 C 9,7 C 6,3 km/h (2 Bft)
10.05.2013 06:00 9,8 C 93 % 1015,8 hPa 0,0 l/m 4,5 km/h (1 Bft) SO 135 8,7 C 9,6 C 10,5 km/h (2 Bft)
10.05.2013 06:05 9,8 C 93 % 1016,2 hPa 0,0 l/m 4,7 km/h (1 Bft) S 180 8,7 C 9,4 C 7,4 km/h (2 Bft)
10.05.2013 06:10 9,4 C 93 % 1016,2 hPa 0,7 l/m 6,4 km/h (2 Bft) S-SW 202 8,3 C 8,6 C 11,4 km/h (2 Bft)
10.05.2013 06:15 9,3 C 93 % 1016,2 hPa 0,7 l/m 6,8 km/h (2 Bft) S-SW 202 8,2 C 7,9 C 6,1 km/h (2 Bft)
10.05.2013 06:20 9,2 C 93 % 1016,2 hPa 0,0 l/m 6,6 km/h (2 Bft) W-SW 247 8,1 C 8,0 C 6,9 km/h (2 Bft)
10.05.2013 06:25 9,2 C 93 % 1016,4 hPa 0,7 l/m 5,0 km/h (1 Bft) S 180 8,1 C 8,6 C 2,4 km/h (1 Bft)
10.05.2013 06:30 9,2 C 93 % 1016,4 hPa 0,0 l/m 2,6 km/h (1 Bft) O 90 8,1 C 9,0 C 0,0 km/h (0 Bft)
10.05.2013 06:35 9,2 C 93 % 1016,4 hPa 0,0 l/m 2,1 km/h (1 Bft) S-SO 157 8,1 C 9,1 C 3,2 km/h (1 Bft)
10.05.2013 06:40 9,2 C 93 % 1016,4 hPa 0,7 l/m 1,9 km/h (1 Bft) S 180 8,1 C 9,1 C 1,9 km/h (1 Bft)
10.05.2013 06:45 9,3 C 93 % 1016,6 hPa 0,0 l/m 1,8 km/h (1 Bft) S-SO 157 8,2 C 9,1 C 4,2 km/h (1 Bft)
10.05.2013 06:50 9,3 C 94 % 1016,6 hPa 0,0 l/m 1,6 km/h (1 Bft) O-SO 112 8,4 C 9,2 C 0,0 km/h (0 Bft)
10.05.2013 06:55 9,4 C 94 % 1016,6 hPa 0,7 l/m 2,6 km/h (1 Bft) S-SW 202 8,5 C 9,2 C 6,4 km/h (2 Bft)
10.05.2013 07:00 9,3 C 94 % 1016,6 hPa 0,0 l/m 2,3 km/h (1 Bft) S 180 8,4 C 9,3 C 3,1 km/h (1 Bft)
10.05.2013 07:05 9,3 C 94 % 1017,1 hPa 0,0 l/m 2,1 km/h (1 Bft) S-SW 202 8,4 C 9,3 C 4,5 km/h (1 Bft)
10.05.2013 07:10 9,3 C 94 % 1017,1 hPa 0,0 l/m 2,4 km/h (1 Bft) S 180 8,4 C 9,3 C 4,5 km/h (1 Bft)
10.05.2013 07:15 9,4 C 94 % 1017,1 hPa 0,0 l/m 2,7 km/h (1 Bft) O-SO 112 8,5 C 9,3 C 2,1 km/h (1 Bft)
10.05.2013 07:20 9,4 C 94 % 1017,1 hPa 0,7 l/m 2,1 km/h (1 Bft) S-SO 157 8,5 C 9,4 C 0,0 km/h (0 Bft)
10.05.2013 07:25 9,4 C 94 % 1017,2 hPa 0,0 l/m 1,1 km/h (1 Bft) NW 315 8,5 C 9,4 C 0,0 km/h (0 Bft)
10.05.2013 07:30 9,5 C 94 % 1017,2 hPa 0,0 l/m 0,2 km/h (0 Bft) S 180 8,6 C 9,4 C 0,0 km/h (0 Bft)
10.05.2013 07:35 9,5 C 94 % 1017,2 hPa 0,0 l/m 0,0 km/h (0 Bft) O 90 8,6 C 9,4 C 0,0 km/h (0 Bft)
10.05.2013 07:40 9,5 C 94 % 1017,2 hPa 0,7 l/m 0,0 km/h (0 Bft) O 90 8,6 C 9,5 C 0,0 km/h (0 Bft)
10.05.2013 07:45 9,6 C 95 % 1017,3 hPa 0,0 l/m 0,0 km/h (0 Bft) S-SW 202 8,8 C 9,6 C 0,0 km/h (0 Bft)
10.05.2013 07:50 9,7 C 95 % 1017,3 hPa 0,0 l/m 0,2 km/h (0 Bft) N-NO 22 8,9 C 9,7 C 0,0 km/h (0 Bft)
10.05.2013 07:55 9,7 C 95 % 1017,3 hPa 0,0 l/m 0,2 km/h (0 Bft) W-NW 292 8,9 C 9,7 C 0,0 km/h (0 Bft)
10.05.2013 08:00 9,8 C 95 % 1017,3 hPa 0,7 l/m 0,0 km/h (0 Bft) O 90 9,0 C 9,9 C 0,0 km/h (0 Bft)
10.05.2013 08:05 10,0 C 95 % 1017,4 hPa 0,0 l/m 0,0 km/h (0 Bft) SW 225 9,2 C 10,0 C 0,0 km/h (0 Bft)
10.05.2013 08:10 10,1 C 95 % 1017,4 hPa 0,0 l/m 0,2 km/h (0 Bft) S 180 9,3 C 10,0 C 1,9 km/h (1 Bft)
10.05.2013 08:15 10,1 C 95 % 1017,4 hPa 0,0 l/m 0,2 km/h (0 Bft) S-SO 157 9,3 C 10,0 C 0,0 km/h (0 Bft)
10.05.2013 08:20 10,1 C 95 % 1017,4 hPa 0,0 l/m 0,2 km/h (0 Bft) O 90 9,3 C 10,1 C 0,0 km/h (0 Bft)
10.05.2013 08:25 10,1 C 95 % 1017,4 hPa 0,0 l/m 0,2 km/h (0 Bft) SO 135 9,3 C 10,2 C 2,4 km/h (1 Bft)
10.05.2013 08:30 10,2 C 95 % 1017,4 hPa 0,7 l/m 0,5 km/h (0 Bft) W-NW 292 9,4 C 10,2 C 0,0 km/h (0 Bft)
10.05.2013 08:35 10,2 C 95 % 1017,4 hPa 0,0 l/m 0,8 km/h (0 Bft) SW 225 9,4 C 10,2 C 2,4 km/h (1 Bft)
10.05.2013 08:40 10,2 C 95 % 1017,4 hPa 0,0 l/m 0,6 km/h (0 Bft) O-SO 112 9,4 C 10,2 C 0,0 km/h (0 Bft)
10.05.2013 08:45 10,2 C 95 % 1017,6 hPa 0,0 l/m 0,8 km/h (0 Bft) S 180 9,4 C 10,2 C 2,4 km/h (1 Bft)
10.05.2013 08:50 10,2 C 95 % 1017,6 hPa 0,7 l/m 0,6 km/h (0 Bft) S 180 9,4 C 10,2 C 1,6 km/h (1 Bft)
10.05.2013 08:55 10,3 C 95 % 1017,6 hPa 0,0 l/m 0,5 km/h (0 Bft) S 180 9,5 C 10,2 C 1,8 km/h (1 Bft)
10.05.2013 09:00 10,4 C 95 % 1017,6 hPa 0,0 l/m 0,2 km/h (0 Bft) S-SO 157 9,6 C 10,3 C 0,0 km/h (0 Bft)
10.05.2013 09:05 10,4 C 95 % 1017,7 hPa 0,0 l/m 0,2 km/h (0 Bft) SO 135 9,6 C 10,4 C 0,0 km/h (0 Bft)
10.05.2013 09:10 10,4 C 95 % 1017,7 hPa 0,0 l/m 0,2 km/h (0 Bft) S 180 9,6 C 10,4 C 0,0 km/h (0 Bft)
10.05.2013 09:15 10,4 C 95 % 1017,7 hPa 0,7 l/m 0,5 km/h (0 Bft) S 180 9,6 C 10,4 C 0,0 km/h (0 Bft)
10.05.2013 09:20 10,5 C 95 % 1017,7 hPa 0,0 l/m 0,8 km/h (0 Bft) SO 135 9,7 C 10,4 C 0,0 km/h (0 Bft)
10.05.2013 09:25 10,5 C 95 % 1017,8 hPa 0,0 l/m 0,5 km/h (0 Bft) S-SO 157 9,7 C 10,5 C 0,0 km/h (0 Bft)
10.05.2013 09:30 10,7 C 95 % 1017,8 hPa 0,0 l/m 0,0 km/h (0 Bft) O-SO 112 9,9 C 10,7 C 0,0 km/h (0 Bft)
10.05.2013 09:35 10,8 C 95 % 1017,8 hPa 0,7 l/m 0,2 km/h (0 Bft) S-SW 202 10,0 C 10,7 C 3,1 km/h (1 Bft)
10.05.2013 09:40 10,8 C 95 % 1017,8 hPa 0,0 l/m 1,8 km/h (1 Bft) S-SW 202 10,0 C 10,7 C 5,5 km/h (1 Bft)
10.05.2013 09:45 10,9 C 95 % 1018,0 hPa 0,0 l/m 2,4 km/h (1 Bft) S 180 10,1 C 10,7 C 2,7 km/h (1 Bft)
10.05.2013 09:50 10,9 C 95 % 1018,0 hPa 0,0 l/m 2,4 km/h (1 Bft) W-SW 247 10,1 C 10,9 C 3,2 km/h (1 Bft)
10.05.2013 09:55 10,9 C 95 % 1018,0 hPa 0,7 l/m 2,4 km/h (1 Bft) N-NO 22 10,1 C 10,9 C 2,9 km/h (1 Bft)
10.05.2013 10:00 10,7 C 95 % 1018,0 hPa 0,0 l/m 3,7 km/h (1 Bft) NO 45 9,9 C 10,7 C 2,7 km/h (1 Bft)
10.05.2013 10:05 10,6 C 95 % 1018,0 hPa 0,0 l/m 3,9 km/h (1 Bft) S 180 9,8 C 10,7 C 5,1 km/h (1 Bft)
10.05.2013 10:10 10,6 C 95 % 1018,0 hPa 0,0 l/m 3,5 km/h (1 Bft) SW 225 9,8 C 10,5 C 4,8 km/h (1 Bft)
10.05.2013 10:15 10,6 C 95 % 1018,0 hPa 0,0 l/m 4,0 km/h (1 Bft) SO 135 9,8 C 10,5 C 3,1 km/h (1 Bft)
10.05.2013 10:20 10,5 C 95 % 1018,0 hPa 0,0 l/m 4,0 km/h (1 Bft) S-SO 157 9,7 C 10,4 C 5,1 km/h (1 Bft)
10.05.2013 10:25 10,5 C 95 % 1018,1 hPa 0,7 l/m 3,7 km/h (1 Bft) SO 135 9,7 C 10,4 C 3,2 km/h (1 Bft)
10.05.2013 10:30 10,6 C 95 % 1018,1 hPa 0,0 l/m 2,9 km/h (1 Bft) O-NO 67 9,8 C 10,5 C 0,0 km/h (0 Bft)
10.05.2013 10:35 10,6 C 95 % 1018,1 hPa 0,0 l/m 2,9 km/h (1 Bft) S-SW 202 9,8 C 10,6 C 2,1 km/h (1 Bft)
10.05.2013 10:40 10,7 C 95 % 1018,1 hPa 0,0 l/m 2,6 km/h (1 Bft) S 180 9,9 C 10,7 C 3,5 km/h (1 Bft)
10.05.2013 10:45 10,7 C 95 % 1018,2 hPa 0,7 l/m 2,7 km/h (1 Bft) S 180 9,9 C 10,7 C 4,8 km/h (1 Bft)
10.05.2013 10:50 10,7 C 95 % 1018,2 hPa 0,0 l/m 2,9 km/h (1 Bft) W-SW 247 9,9 C 10,7 C 2,9 km/h (1 Bft)
10.05.2013 10:55 10,6 C 95 % 1018,2 hPa 0,0 l/m 3,1 km/h (1 Bft) S 180 9,8 C 10,6 C 4,8 km/h (1 Bft)
10.05.2013 11:00 10,4 C 95 % 1018,2 hPa 1,4 l/m 4,3 km/h (1 Bft) S-SW 202 9,6 C 10,4 C 7,2 km/h (2 Bft)
10.05.2013 11:05 10,5 C 95 % 1018,6 hPa 0,7 l/m 4,8 km/h (1 Bft) S-SW 202 9,7 C 10,2 C 5,0 km/h (1 Bft)
10.05.2013 11:10 10,6 C 95 % 1018,6 hPa 0,7 l/m 4,8 km/h (1 Bft) S 180 9,8 C 10,3 C 4,0 km/h (1 Bft)
10.05.2013 11:15 10,7 C 95 % 1018,6 hPa 0,0 l/m 3,9 km/h (1 Bft) W-SW 247 9,9 C 10,7 C 2,7 km/h (1 Bft)
10.05.2013 11:20 10,9 C 95 % 1018,6 hPa 0,0 l/m 2,6 km/h (1 Bft) S 180 10,1 C 10,9 C 3,4 km/h (1 Bft)
10.05.2013 11:25 11,0 C 95 % 1018,5 hPa 0,0 l/m 3,4 km/h (1 Bft) SW 225 10,2 C 10,9 C 4,0 km/h (1 Bft)
10.05.2013 11:30 10,8 C 95 % 1018,5 hPa 0,7 l/m 3,5 km/h (1 Bft) S 180 10,0 C 10,9 C 4,7 km/h (1 Bft)
10.05.2013 11:35 10,7 C 95 % 1018,5 hPa 0,0 l/m 3,2 km/h (1 Bft) W 270 9,9 C 10,8 C 2,1 km/h (1 Bft)
10.05.2013 11:40 10,7 C 95 % 1018,5 hPa 0,0 l/m 3,2 km/h (1 Bft) W-SW 247 9,9 C 10,8 C 2,9 km/h (1 Bft)
10.05.2013 11:45 10,7 C 95 % 1018,2 hPa 0,0 l/m 2,9 km/h (1 Bft) W-NW 292 9,9 C 10,8 C 5,1 km/h (1 Bft)
10.05.2013 11:50 10,7 C 95 % 1018,2 hPa 0,0 l/m 2,7 km/h (1 Bft) W 270 9,9 C 10,7 C 4,0 km/h (1 Bft)
10.05.2013 11:55 10,7 C 95 % 1018,2 hPa 0,0 l/m 2,6 km/h (1 Bft) S 180 9,9 C 10,7 C 2,7 km/h (1 Bft)
10.05.2013 12:00 11,0 C 95 % 1018,2 hPa 0,7 l/m 3,1 km/h (1 Bft) S-SW 202 10,2 C 10,9 C 5,3 km/h (1 Bft)
10.05.2013 12:05 11,0 C 95 % 1018,7 hPa 0,0 l/m 3,2 km/h (1 Bft) S 180 10,2 C 10,9 C 4,0 km/h (1 Bft)
10.05.2013 12:10 10,7 C 95 % 1018,7 hPa 0,0 l/m 4,5 km/h (1 Bft) S-SW 202 9,9 C 10,9 C 5,6 km/h (1 Bft)
10.05.2013 12:15 10,7 C 95 % 1018,7 hPa 0,0 l/m 4,7 km/h (1 Bft) S-SW 202 9,9 C 10,7 C 3,7 km/h (1 Bft)
10.05.2013 12:20 10,8 C 95 % 1018,7 hPa 0,0 l/m 3,7 km/h (1 Bft) S-SW 202 10,0 C 10,9 C 2,9 km/h (1 Bft)
10.05.2013 12:25 10,8 C 95 % 1018,8 hPa 0,0 l/m 2,9 km/h (1 Bft) S-SW 202 10,0 C 10,9 C 2,7 km/h (1 Bft)
10.05.2013 12:30 10,7 C 94 % 1018,8 hPa 0,0 l/m 3,7 km/h (1 Bft) S-SO 157 9,8 C 10,7 C 4,5 km/h (1 Bft)
10.05.2013 12:35 10,7 C 94 % 1018,8 hPa 0,0 l/m 4,5 km/h (1 Bft) S-SW 202 9,8 C 10,7 C 4,8 km/h (1 Bft)
10.05.2013 12:40 10,8 C 94 % 1018,8 hPa 0,0 l/m 4,5 km/h (1 Bft) SO 135 9,9 C 10,7 C 3,1 km/h (1 Bft)
10.05.2013 12:45 10,8 C 94 % 1018,7 hPa 0,0 l/m 4,2 km/h (1 Bft) W-SW 247 9,9 C 10,9 C 4,0 km/h (1 Bft)
10.05.2013 12:50 11,1 C 94 % 1018,7 hPa 0,0 l/m 3,7 km/h (1 Bft) S-SW 202 10,2 C 11,1 C 3,5 km/h (1 Bft)
10.05.2013 12:55 11,1 C 94 % 1018,7 hPa 0,0 l/m 4,0 km/h (1 Bft) S-SW 202 10,2 C 11,3 C 3,1 km/h (1 Bft)
10.05.2013 13:00 11,4 C 94 % 1018,7 hPa 0,7 l/m 4,3 km/h (1 Bft) S 180 10,5 C 11,5 C 5,1 km/h (1 Bft)
10.05.2013 13:05 11,4 C 94 % 1018,8 hPa 0,0 l/m 3,7 km/h (1 Bft) SO 135 10,5 C 11,6 C 4,5 km/h (1 Bft)
10.05.2013 13:10 11,2 C 93 % 1018,8 hPa 0,0 l/m 3,5 km/h (1 Bft) S-SW 202 10,1 C 11,5 C 4,7 km/h (1 Bft)
10.05.2013 13:15 11,3 C 93 % 1018,8 hPa 0,0 l/m 3,4 km/h (1 Bft) S-SO 157 10,2 C 11,4 C 5,0 km/h (1 Bft)
10.05.2013 13:20 11,4 C 93 % 1018,8 hPa 0,0 l/m 3,1 km/h (1 Bft) S-SW 202 10,3 C 11,4 C 3,9 km/h (1 Bft)
10.05.2013 13:25 11,3 C 93 % 1019,0 hPa 0,0 l/m 3,4 km/h (1 Bft) S-SW 202 10,2 C 11,4 C 6,6 km/h (2 Bft)
10.05.2013 13:30 11,2 C 93 % 1019,0 hPa 0,0 l/m 3,9 km/h (1 Bft) S 180 10,1 C 11,3 C 4,8 km/h (1 Bft)
10.05.2013 13:35 11,4 C 93 % 1019,0 hPa 0,0 l/m 4,0 km/h (1 Bft) S-SW 202 10,3 C 11,3 C 3,9 km/h (1 Bft)
10.05.2013 13:40 11,6 C 93 % 1019,0 hPa 0,0 l/m 2,9 km/h (1 Bft) S 180 10,5 C 11,6 C 3,9 km/h (1 Bft)
10.05.2013 13:45 11,5 C 93 % 1019,0 hPa 0,0 l/m 2,7 km/h (1 Bft) SO 135 10,4 C 11,7 C 4,2 km/h (1 Bft)
10.05.2013 13:50 11,4 C 93 % 1019,0 hPa 0,0 l/m 3,5 km/h (1 Bft) S-SO 157 10,3 C 11,5 C 3,7 km/h (1 Bft)
10.05.2013 13:55 11,7 C 93 % 1019,0 hPa 0,0 l/m 3,1 km/h (1 Bft) S-SO 157 10,6 C 11,6 C 4,2 km/h (1 Bft)
10.05.2013 14:00 12,1 C 92 % 1019,0 hPa 0,0 l/m 2,7 km/h (1 Bft) S-SW 202 10,8 C 11,9 C 0,0 km/h (0 Bft)
10.05.2013 14:05 12,7 C 92 % 1019,1 hPa 0,0 l/m 2,6 km/h (1 Bft) S-SW 202 11,4 C 12,4 C 3,9 km/h (1 Bft)
10.05.2013 14:10 12,9 C 92 % 1019,1 hPa 0,0 l/m 2,4 km/h (1 Bft) S-SW 202 11,6 C 13,1 C 6,0 km/h (2 Bft)
10.05.2013 14:15 12,6 C 91 % 1019,1 hPa 0,0 l/m 3,7 km/h (1 Bft) W-SW 247 11,2 C 13,1 C 5,3 km/h (1 Bft)
10.05.2013 14:20 12,3 C 90 % 1019,1 hPa 0,0 l/m 4,7 km/h (1 Bft) S-SW 202 10,7 C 13,0 C 4,0 km/h (1 Bft)
10.05.2013 14:25 12,2 C 89 % 1019,0 hPa 0,0 l/m 4,2 km/h (1 Bft) S-SO 157 10,4 C 13,0 C 4,2 km/h (1 Bft)
10.05.2013 14:30 12,5 C 90 % 1019,0 hPa 0,7 l/m 3,7 km/h (1 Bft) S 180 10,9 C 12,9 C 3,7 km/h (1 Bft)
10.05.2013 14:35 12,7 C 91 % 1019,0 hPa 0,0 l/m 3,5 km/h (1 Bft) SO 135 11,3 C 13,1 C 3,4 km/h (1 Bft)
10.05.2013 14:40 12,7 C 91 % 1019,0 hPa 0,0 l/m 2,9 km/h (1 Bft) S-SW 202 11,3 C 13,1 C 5,8 km/h (2 Bft)
10.05.2013 14:45 12,5 C 90 % 1018,9 hPa 0,0 l/m 3,2 km/h (1 Bft) S-SW 202 10,9 C 13,0 C 4,3 km/h (1 Bft)
10.05.2013 14:50 12,1 C 89 % 1018,9 hPa 0,0 l/m 3,9 km/h (1 Bft) SO 135 10,3 C 12,7 C 2,7 km/h (1 Bft)
10.05.2013 14:55 12,0 C 89 % 1018,9 hPa 0,0 l/m 3,5 km/h (1 Bft) SO 135 10,2 C 12,6 C 4,3 km/h (1 Bft)
10.05.2013 15:00 12,1 C 90 % 1018,9 hPa 0,0 l/m 2,6 km/h (1 Bft) S 180 10,5 C 12,5 C 2,3 km/h (1 Bft)
10.05.2013 15:05 12,0 C 91 % 1018,9 hPa 0,0 l/m 1,9 km/h (1 Bft) S-SW 202 10,6 C 12,4 C 2,4 km/h (1 Bft)
10.05.2013 15:10 11,6 C 91 % 1018,9 hPa 0,0 l/m 1,4 km/h (1 Bft) S 180 10,2 C 11,8 C 2,6 km/h (1 Bft)
10.05.2013 15:15 11,3 C 91 % 1018,9 hPa 0,0 l/m 2,7 km/h (1 Bft) S 180 9,9 C 11,5 C 7,7 km/h (2 Bft)
10.05.2013 15:20 11,4 C 92 % 1018,9 hPa 0,0 l/m 4,8 km/h (1 Bft) S 180 10,1 C 11,1 C 4,3 km/h (1 Bft)
10.05.2013 15:25 11,3 C 92 % 1019,0 hPa 0,0 l/m 5,5 km/h (1 Bft) SW 225 10,0 C 10,9 C 3,2 km/h (1 Bft)
10.05.2013 15:30 11,6 C 92 % 1019,0 hPa 0,0 l/m 4,8 km/h (1 Bft) S 180 10,3 C 11,1 C 6,6 km/h (2 Bft)
10.05.2013 15:35 11,5 C 92 % 1019,0 hPa 0,0 l/m 5,3 km/h (1 Bft) S-SW 202 10,2 C 11,1 C 8,0 km/h (2 Bft)
10.05.2013 15:40 11,5 C 91 % 1019,0 hPa 0,0 l/m 6,4 km/h (2 Bft) SO 135 10,1 C 10,7 C 6,6 km/h (2 Bft)
10.05.2013 15:45 11,4 C 91 % 1019,2 hPa 0,0 l/m 6,4 km/h (2 Bft) S 180 10,0 C 10,7 C 10,3 km/h (2 Bft)
10.05.2013 15:50 11,4 C 92 % 1019,2 hPa 0,7 l/m 5,3 km/h (1 Bft) S 180 10,1 C 10,9 C 5,3 km/h (1 Bft)
10.05.2013 15:55 11,1 C 92 % 1019,2 hPa 0,0 l/m 5,0 km/h (1 Bft) O 90 9,8 C 10,9 C 11,1 km/h (2 Bft)
10.05.2013 16:00 10,7 C 92 % 1019,2 hPa 0,0 l/m 5,0 km/h (1 Bft) O-SO 112 9,5 C 10,6 C 10,0 km/h (2 Bft)
10.05.2013 16:05 10,6 C 92 % 1019,3 hPa 0,7 l/m 4,0 km/h (1 Bft) W-SW 247 9,4 C 10,5 C 3,7 km/h (1 Bft)
10.05.2013 16:10 10,3 C 92 % 1019,3 hPa 0,7 l/m 3,5 km/h (1 Bft) S-SO 157 9,1 C 10,2 C 4,5 km/h (1 Bft)
10.05.2013 16:15 10,2 C 92 % 1019,3 hPa 0,0 l/m 4,0 km/h (1 Bft) S-SW 202 9,0 C 10,1 C 5,1 km/h (1 Bft)
10.05.2013 16:20 10,1 C 93 % 1019,3 hPa 0,7 l/m 4,0 km/h (1 Bft) SW 225 9,0 C 10,0 C 2,4 km/h (1 Bft)
10.05.2013 16:25 10,3 C 93 % 1019,2 hPa 0,0 l/m 2,7 km/h (1 Bft) SO 135 9,2 C 10,0 C 1,6 km/h (1 Bft)
10.05.2013 16:30 10,2 C 93 % 1019,2 hPa 0,7 l/m 1,6 km/h (1 Bft) S 180 9,1 C 10,2 C 1,6 km/h (1 Bft)
10.05.2013 16:35 10,1 C 93 % 1019,2 hPa 0,0 l/m 1,9 km/h (1 Bft) S-SW 202 9,0 C 10,1 C 2,3 km/h (1 Bft)
10.05.2013 16:40 9,7 C 93 % 1019,2 hPa 0,7 l/m 1,9 km/h (1 Bft) S 180 8,6 C 9,7 C 1,6 km/h (1 Bft)
10.05.2013 16:45 9,5 C 93 % 1019,2 hPa 0,0 l/m 2,4 km/h (1 Bft) S-SO 157 8,4 C 9,5 C 6,1 km/h (2 Bft)
10.05.2013 16:50 9,4 C 93 % 1019,2 hPa 0,7 l/m 2,7 km/h (1 Bft) O-SO 112 8,3 C 9,4 C 2,4 km/h (1 Bft)
10.05.2013 16:55 9,6 C 94 % 1019,2 hPa 0,0 l/m 1,9 km/h (1 Bft) O-SO 112 8,7 C 9,5 C 0,0 km/h (0 Bft)
10.05.2013 17:00 9,7 C 94 % 1019,2 hPa 0,7 l/m 1,9 km/h (1 Bft) S 180 8,8 C 9,6 C 4,8 km/h (1 Bft)
10.05.2013 17:05 9,7 C 94 % 1019,3 hPa 0,0 l/m 3,1 km/h (1 Bft) SW 225 8,8 C 9,6 C 3,5 km/h (1 Bft)
10.05.2013 17:10 9,7 C 94 % 1019,3 hPa 0,0 l/m 4,0 km/h (1 Bft) S 180 8,8 C 9,5 C 5,6 km/h (1 Bft)
10.05.2013 17:15 9,6 C 94 % 1019,3 hPa 0,0 l/m 3,5 km/h (1 Bft) S-SW 202 8,7 C 9,6 C 6,0 km/h (2 Bft)
10.05.2013 17:20 9,7 C 94 % 1019,3 hPa 0,0 l/m 3,7 km/h (1 Bft) S 180 8,8 C 9,6 C 7,4 km/h (2 Bft)
10.05.2013 17:25 9,7 C 94 % 1019,2 hPa 0,0 l/m 3,9 km/h (1 Bft) SO 135 8,8 C 9,6 C 6,6 km/h (2 Bft)
10.05.2013 17:30 9,7 C 94 % 1019,2 hPa 0,0 l/m 4,2 km/h (1 Bft) S 180 8,8 C 9,6 C 4,7 km/h (1 Bft)
10.05.2013 17:35 9,7 C 94 % 1019,2 hPa 0,0 l/m 5,0 km/h (1 Bft) S 180 8,8 C 9,3 C 6,3 km/h (2 Bft)
10.05.2013 17:40 9,6 C 94 % 1019,2 hPa 0,7 l/m 5,5 km/h (1 Bft) S 180 8,7 C 9,2 C 13,8 km/h (3 Bft)
10.05.2013 17:45 9,6 C 94 % 1019,4 hPa 0,0 l/m 5,8 km/h (2 Bft) S-SO 157 8,7 C 8,9 C 7,1 km/h (2 Bft)
10.05.2013 17:50 9,5 C 94 % 1019,4 hPa 0,0 l/m 5,3 km/h (1 Bft) W-SW 247 8,6 C 8,9 C 4,2 km/h (1 Bft)
10.05.2013 17:55 9,6 C 94 % 1019,4 hPa 0,7 l/m 4,2 km/h (1 Bft) S-SW 202 8,7 C 9,3 C 2,4 km/h (1 Bft)
10.05.2013 18:00 9,6 C 94 % 1019,4 hPa 0,0 l/m 3,4 km/h (1 Bft) S 180 8,7 C 9,4 C 8,0 km/h (2 Bft)
10.05.2013 18:05 9,4 C 94 % 1019,5 hPa 0,0 l/m 5,0 km/h (1 Bft) S 180 8,5 C 9,1 C 6,4 km/h (2 Bft)
10.05.2013 18:10 9,3 C 94 % 1019,5 hPa 0,0 l/m 5,8 km/h (2 Bft) SO 135 8,4 C 8,6 C 5,1 km/h (1 Bft)
10.05.2013 18:15 9,2 C 94 % 1019,5 hPa 0,0 l/m 5,3 km/h (1 Bft) S-SO 157 8,3 C 8,6 C 6,9 km/h (2 Bft)
10.05.2013 18:20 9,2 C 94 % 1019,5 hPa 0,0 l/m 5,1 km/h (1 Bft) S-SW 202 8,3 C 8,7 C 4,8 km/h (1 Bft)
10.05.2013 18:25 9,1 C 94 % 1019,6 hPa 0,0 l/m 5,3 km/h (1 Bft) S 180 8,2 C 8,5 C 5,8 km/h (2 Bft)
10.05.2013 18:30 9,0 C 94 % 1019,6 hPa 0,7 l/m 5,1 km/h (1 Bft) S-SW 202 8,1 C 8,4 C 6,8 km/h (2 Bft)
10.05.2013 18:35 9,1 C 94 % 1019,6 hPa 0,0 l/m 4,7 km/h (1 Bft) S-SO 157 8,2 C 8,6 C 3,9 km/h (1 Bft)
10.05.2013 18:40 9,1 C 95 % 1019,6 hPa 0,0 l/m 3,5 km/h (1 Bft) O-SO 112 8,3 C 8,9 C 2,7 km/h (1 Bft)
10.05.2013 18:45 9,1 C 95 % 1019,6 hPa 0,0 l/m 2,6 km/h (1 Bft) S 180 8,3 C 8,9 C 0,0 km/h (0 Bft)
10.05.2013 18:50 9,1 C 95 % 1019,6 hPa 0,7 l/m 1,1 km/h (1 Bft) S-SO 157 8,3 C 8,9 C 4,5 km/h (1 Bft)
10.05.2013 18:55 9,0 C 95 % 1019,6 hPa 0,0 l/m 1,0 km/h (0 Bft) NO 45 8,2 C 8,9 C 0,0 km/h (0 Bft)
10.05.2013 19:00 8,9 C 95 % 1019,6 hPa 0,0 l/m 0,8 km/h (0 Bft) O 90 8,1 C 8,9 C 0,0 km/h (0 Bft)
10.05.2013 19:05 8,9 C 95 % 1019,6 hPa 0,0 l/m 0,2 km/h (0 Bft) O-SO 112 8,1 C 8,9 C 0,0 km/h (0 Bft)
10.05.2013 19:10 8,9 C 95 % 1019,6 hPa 0,0 l/m 0,0 km/h (0 Bft) S 180 8,1 C 8,9 C 0,0 km/h (0 Bft)
10.05.2013 19:15 8,9 C 95 % 1019,6 hPa 0,7 l/m 0,0 km/h (0 Bft) S-SO 157 8,1 C 8,9 C 0,0 km/h (0 Bft)
10.05.2013 19:20 8,9 C 95 % 1019,6 hPa 0,0 l/m 0,0 km/h (0 Bft) O-SO 112 8,1 C 8,9 C 0,0 km/h (0 Bft)
10.05.2013 19:25 8,8 C 95 % 1019,6 hPa 0,0 l/m 0,0 km/h (0 Bft) O-SO 112 8,0 C 8,9 C 0,0 km/h (0 Bft)
10.05.2013 19:30 8,8 C 95 % 1019,6 hPa 0,0 l/m 0,3 km/h (0 Bft) S-SO 157 8,0 C 8,9 C 0,0 km/h (0 Bft)
10.05.2013 19:35 8,8 C 95 % 1019,6 hPa 0,0 l/m 0,3 km/h (0 Bft) S 180 8,0 C 8,8 C 0,0 km/h (0 Bft)
10.05.2013 19:40 8,8 C 95 % 1019,6 hPa 0,7 l/m 0,6 km/h (0 Bft) S 180 8,0 C 8,7 C 1,6 km/h (1 Bft)
10.05.2013 19:45 8,8 C 95 % 1019,7 hPa 0,0 l/m 0,6 km/h (0 Bft) O-SO 112 8,0 C 8,7 C 0,0 km/h (0 Bft)
10.05.2013 19:50 8,7 C 95 % 1019,7 hPa 0,0 l/m 0,0 km/h (0 Bft) NO 45 7,9 C 8,7 C 0,0 km/h (0 Bft)
10.05.2013 19:55 8,7 C 95 % 1019,7 hPa 0,0 l/m 0,0 km/h (0 Bft) S 180 7,9 C 8,7 C 0,0 km/h (0 Bft)
10.05.2013 20:00 8,7 C 95 % 1019,7 hPa 0,0 l/m 0,0 km/h (0 Bft) O 90 7,9 C 8,7 C 0,0 km/h (0 Bft)
10.05.2013 20:05 8,7 C 95 % 1019,8 hPa 0,0 l/m 0,0 km/h (0 Bft) S 180 7,9 C 8,7 C 0,0 km/h (0 Bft)
10.05.2013 20:10 8,7 C 95 % 1019,8 hPa 0,0 l/m 0,0 km/h (0 Bft) O-SO 112 7,9 C 8,7 C 0,0 km/h (0 Bft)
10.05.2013 20:15 8,7 C 95 % 1019,8 hPa 0,0 l/m 0,0 km/h (0 Bft) O-NO 67 7,9 C 8,7 C 0,0 km/h (0 Bft)
10.05.2013 20:20 8,6 C 95 % 1019,8 hPa 0,0 l/m 0,0 km/h (0 Bft) O 90 7,8 C 8,7 C 0,0 km/h (0 Bft)
10.05.2013 20:25 8,6 C 95 % 1019,7 hPa 0,0 l/m 0,0 km/h (0 Bft) O 90 7,8 C 8,7 C 0,0 km/h (0 Bft)
10.05.2013 20:30 8,6 C 95 % 1019,7 hPa 0,7 l/m 0,0 km/h (0 Bft) NO 45 7,8 C 8,7 C 1,6 km/h (1 Bft)
10.05.2013 20:35 8,6 C 95 % 1019,7 hPa 0,0 l/m 0,0 km/h (0 Bft) O 90 7,8 C 8,6 C 0,0 km/h (0 Bft)
10.05.2013 20:40 8,5 C 95 % 1019,7 hPa 0,0 l/m 0,0 km/h (0 Bft) O 90 7,7 C 8,6 C 0,0 km/h (0 Bft)
10.05.2013 20:45 8,5 C 95 % 1019,3 hPa 0,0 l/m 0,5 km/h (0 Bft) O 90 7,7 C 8,5 C 1,9 km/h (1 Bft)
10.05.2013 20:50 8,3 C 95 % 1019,3 hPa 0,0 l/m 1,0 km/h (0 Bft) SO 135 7,5 C 8,4 C 0,0 km/h (0 Bft)
10.05.2013 20:55 8,3 C 95 % 1019,3 hPa 0,0 l/m 1,3 km/h (1 Bft) SO 135 7,5 C 8,4 C 2,4 km/h (1 Bft)
10.05.2013 21:00 8,3 C 95 % 1019,3 hPa 0,0 l/m 1,3 km/h (1 Bft) NO 45 7,5 C 8,3 C 0,0 km/h (0 Bft)
10.05.2013 21:05 8,2 C 95 % 1019,4 hPa 0,0 l/m 1,4 km/h (1 Bft) NO 45 7,4 C 8,2 C 2,1 km/h (1 Bft)
10.05.2013 21:10 8,1 C 95 % 1019,4 hPa 0,0 l/m 1,1 km/h (1 Bft) O-SO 112 7,3 C 8,2 C 0,0 km/h (0 Bft)
10.05.2013 21:15 8,1 C 95 % 1019,4 hPa 0,0 l/m 0,6 km/h (0 Bft) S-SO 157 7,3 C 8,1 C 0,0 km/h (0 Bft)
10.05.2013 21:20 8,1 C 95 % 1019,4 hPa 0,0 l/m 0,3 km/h (0 Bft) O-SO 112 7,3 C 8,1 C 0,0 km/h (0 Bft)
10.05.2013 21:25 8,1 C 95 % 1019,8 hPa 0,0 l/m 0,3 km/h (0 Bft) O-NO 67 7,3 C 8,1 C 1,6 km/h (1 Bft)
10.05.2013 21:30 8,1 C 95 % 1019,8 hPa 0,0 l/m 0,3 km/h (0 Bft) O 90 7,3 C 8,1 C 0,0 km/h (0 Bft)
10.05.2013 21:35 8,1 C 95 % 1019,8 hPa 0,0 l/m 0,2 km/h (0 Bft) O 90 7,3 C 8,1 C 0,0 km/h (0 Bft)
10.05.2013 21:40 8,1 C 95 % 1019,8 hPa 0,0 l/m 0,3 km/h (0 Bft) NO 45 7,3 C 8,0 C 0,0 km/h (0 Bft)
10.05.2013 21:45 8,0 C 96 % 1020,0 hPa 0,0 l/m 0,3 km/h (0 Bft) NO 45 7,4 C 8,0 C 0,0 km/h (0 Bft)
10.05.2013 21:50 8,0 C 96 % 1020,0 hPa 0,0 l/m 0,6 km/h (0 Bft) NO 45 7,4 C 8,0 C 2,3 km/h (1 Bft)
10.05.2013 21:55 8,0 C 96 % 1020,0 hPa 0,0 l/m 1,0 km/h (0 Bft) NO 45 7,4 C 8,0 C 1,9 km/h (1 Bft)
10.05.2013 22:00 8,0 C 96 % 1020,0 hPa 0,0 l/m 0,8 km/h (0 Bft) NO 45 7,4 C 8,0 C 1,8 km/h (1 Bft)
10.05.2013 22:05 7,9 C 96 % 1019,8 hPa 0,0 l/m 0,5 km/h (0 Bft) O-NO 67 7,3 C 7,9 C 0,0 km/h (0 Bft)
10.05.2013 22:10 7,9 C 96 % 1019,8 hPa 0,0 l/m 0,2 km/h (0 Bft) NO 45 7,3 C 7,8 C 0,0 km/h (0 Bft)
10.05.2013 22:15 7,9 C 96 % 1019,8 hPa 0,0 l/m 0,2 km/h (0 Bft) SO 135 7,3 C 7,8 C 2,3 km/h (1 Bft)
10.05.2013 22:20 7,9 C 96 % 1019,8 hPa 0,0 l/m 0,8 km/h (0 Bft) S-SO 157 7,3 C 7,9 C 0,0 km/h (0 Bft)
10.05.2013 22:25 8,0 C 96 % 1019,8 hPa 0,0 l/m 0,6 km/h (0 Bft) NO 45 7,4 C 7,9 C 0,0 km/h (0 Bft)
10.05.2013 22:30 7,9 C 96 % 1019,8 hPa 0,0 l/m 0,2 km/h (0 Bft) O 90 7,3 C 7,9 C 0,0 km/h (0 Bft)
10.05.2013 22:35 7,9 C 96 % 1019,8 hPa 0,0 l/m 0,2 km/h (0 Bft) NO 45 7,3 C 7,8 C 0,0 km/h (0 Bft)
10.05.2013 22:40 7,9 C 96 % 1019,8 hPa 0,0 l/m 0,2 km/h (0 Bft) N-NO 22 7,3 C 7,8 C 0,0 km/h (0 Bft)
10.05.2013 22:45 7,9 C 96 % 1019,8 hPa 0,0 l/m 0,2 km/h (0 Bft) N-NO 22 7,3 C 7,8 C 0,0 km/h (0 Bft)
10.05.2013 22:50 7,9 C 96 % 1019,8 hPa 0,0 l/m 0,0 km/h (0 Bft) NO 45 7,3 C 7,8 C 0,0 km/h (0 Bft)
10.05.2013 22:55 7,8 C 96 % 1019,8 hPa 0,0 l/m 0,0 km/h (0 Bft) NO 45 7,2 C 7,8 C 0,0 km/h (0 Bft)
10.05.2013 23:00 7,8 C 96 % 1019,8 hPa 0,0 l/m 0,0 km/h (0 Bft) SO 135 7,2 C 7,7 C 0,0 km/h (0 Bft)
10.05.2013 23:05 7,8 C 96 % 1019,9 hPa 0,0 l/m 0,0 km/h (0 Bft) O-SO 112 7,2 C 7,7 C 0,0 km/h (0 Bft)
10.05.2013 23:10 7,7 C 96 % 1019,9 hPa 0,0 l/m 0,2 km/h (0 Bft) O-SO 112 7,1 C 7,6 C 0,0 km/h (0 Bft)
10.05.2013 23:15 7,7 C 96 % 1019,9 hPa 0,0 l/m 0,2 km/h (0 Bft) SO 135 7,1 C 7,6 C 0,0 km/h (0 Bft)
10.05.2013 23:20 7,7 C 96 % 1019,9 hPa 0,0 l/m 0,0 km/h (0 Bft) W-NW 292 7,1 C 7,6 C 0,0 km/h (0 Bft)
10.05.2013 23:25 7,7 C 96 % 1019,8 hPa 0,0 l/m 0,0 km/h (0 Bft) SO 135 7,1 C 7,6 C 0,0 km/h (0 Bft)
10.05.2013 23:30 7,7 C 96 % 1019,8 hPa 0,0 l/m 0,0 km/h (0 Bft) O-SO 112 7,1 C 7,6 C 0,0 km/h (0 Bft)
10.05.2013 23:35 7,7 C 96 % 1019,8 hPa 0,0 l/m 0,0 km/h (0 Bft) S-SW 202 7,1 C 7,6 C 0,0 km/h (0 Bft)
10.05.2013 23:40 7,7 C 96 % 1019,8 hPa 0,0 l/m 0,0 km/h (0 Bft) O 90 7,1 C 7,6 C 0,0 km/h (0 Bft)
10.05.2013 23:45 7,7 C 96 % 1019,8 hPa 0,0 l/m 0,0 km/h (0 Bft) NO 45 7,1 C 7,5 C 0,0 km/h (0 Bft)
10.05.2013 23:50 7,6 C 96 % 1019,8 hPa 0,0 l/m 0,0 km/h (0 Bft) O 90 7,0 C 7,5 C 0,0 km/h (0 Bft)
10.05.2013 23:55 7,6 C 96 % 1019,8 hPa 0,0 l/m 0,0 km/h (0 Bft) S 180 7,0 C 7,5 C 0,0 km/h (0 Bft)
_ Min-Zeit 23:55 14:55 05:00 - 23:55 - - 23:55 23:55 23:55
Minimum _ 7,6 C 89 % 1015,1 hPa - 0,0 km/h (0 Bft) - - 7,0 C 7,5 C 0,0 km/h (0 Bft)
_ Max-Zeit 14:10 23:55 22:00 11:00 06:15 - - 14:10 14:40 17:40
Maximum _ 12,9 C 96 % 1020,0 hPa 1,4 l/m 6,8 km/h
S-SW (2 Bft)
- - 11,6 C 13,1 C 13,8 km/h
S (3 Bft)
Durchschnitt _ 10,3 C 94 % 1018,1 hPa #27,5 l/m 2,0 km/h (1 Bft) S - 9,4 C 10,3 C 2,6 km/h (1 Bft)